TimeCST,TemperatureF,Dew PointF,Humidity,Sea Level PressureIn,VisibilityMPH,Wind Direction,Wind SpeedMPH,Gust SpeedMPH,PrecipitationIn,Events,Conditions,WindDirDegrees,DateUTC
12:53 AM,62.1,53.1,72,29.82,10.0,South,15.0,-,N/A,,Clear,190,2012-12-19 06:53:00
1:53 AM,60.1,53.1,78,29.82,10.0,South,11.5,-,N/A,,Clear,180,2012-12-19 07:53:00
2:50 AM,60.8,53.6,77,29.83,10.0,South,10.4,-,N/A,,Mostly Cloudy,180,2012-12-19 08:50:00
2:53 AM,60.1,54.0,80,29.81,10.0,South,9.2,-,N/A,,Mostly Cloudy,180,2012-12-19 08:53:00
3:25 AM,60.8,55.4,82,29.83,10.0,South,8.1,-,N/A,,Overcast,180,2012-12-19 09:25:00
3:53 AM,62.1,55.9,80,29.81,10.0,South,6.9,-,N/A,,Overcast,180,2012-12-19 09:53:00
4:53 AM,63.0,59.0,87,29.81,10.0,South,9.2,-,N/A,,Overcast,180,2012-12-19 10:53:00
5:50 AM,64.4,60.8,88,29.81,10.0,South,15.0,-,N/A,,Overcast,170,2012-12-19 11:50:00
5:53 AM,64.0,60.1,87,29.80,10.0,South,13.8,-,N/A,,Overcast,170,2012-12-19 11:53:00
6:20 AM,64.4,60.8,88,29.81,10.0,South,12.7,-,N/A,,Scattered Clouds,170,2012-12-19 12:20:00
6:36 AM,64.4,60.8,88,29.81,10.0,South,11.5,-,N/A,,Mostly Cloudy,180,2012-12-19 12:36:00
6:53 AM,64.9,61.0,87,29.80,10.0,South,13.8,-,N/A,,Overcast,180,2012-12-19 12:53:00
7:19 AM,64.4,60.8,88,29.80,10.0,South,17.3,23.0,N/A,,Scattered Clouds,180,2012-12-19 13:19:00
7:42 AM,66.2,62.6,88,29.80,10.0,South,16.1,21.9,N/A,,Mostly Cloudy,180,2012-12-19 13:42:00
7:53 AM,66.0,62.1,87,29.79,10.0,South,13.8,25.3,N/A,,Mostly Cloudy,180,2012-12-19 13:53:00
8:05 AM,66.2,62.6,88,29.81,10.0,South,13.8,23.0,N/A,,Mostly Cloudy,190,2012-12-19 14:05:00
8:53 AM,68.0,62.1,81,29.79,10.0,South,21.9,26.5,N/A,,Overcast,180,2012-12-19 14:53:00
9:05 AM,68.0,62.6,83,29.80,10.0,South,20.7,26.5,N/A,,Mostly Cloudy,180,2012-12-19 15:05:00
9:34 AM,69.8,62.6,78,29.81,10.0,South,20.7,27.6,N/A,,Mostly Cloudy,180,2012-12-19 15:34:00
9:46 AM,69.8,62.6,78,29.81,10.0,South,20.7,27.6,N/A,,Mostly Cloudy,180,2012-12-19 15:46:00
9:53 AM,70.0,63.0,78,29.79,10.0,South,20.7,33.4,N/A,,Mostly Cloudy,190,2012-12-19 15:53:00
10:29 AM,71.6,62.6,73,29.79,10.0,South,25.3,32.2,N/A,,Mostly Cloudy,190,2012-12-19 16:29:00
10:53 AM,72.0,62.1,71,29.77,10.0,South,25.3,38.0,N/A,,Mostly Cloudy,190,2012-12-19 16:53:00
11:53 AM,73.0,63.0,71,29.74,10.0,South,18.4,25.3,N/A,,Overcast,190,2012-12-19 17:53:00
12:45 PM,73.4,62.6,69,29.72,10.0,South,20.7,29.9,N/A,,Overcast,180,2012-12-19 18:45:00
12:53 PM,73.9,63.0,68,29.71,10.0,South,17.3,29.9,N/A,,Overcast,190,2012-12-19 18:53:00
1:53 PM,75.0,63.0,66,29.67,10.0,South,19.6,28.8,N/A,,Mostly Cloudy,190,2012-12-19 19:53:00
2:53 PM,77.0,62.1,60,29.65,10.0,South,17.3,26.5,N/A,,Mostly Cloudy,190,2012-12-19 20:53:00
3:53 PM,75.9,62.1,62,29.64,10.0,South,16.1,25.3,N/A,,Partly Cloudy,180,2012-12-19 21:53:00
4:53 PM,75.9,62.1,62,29.63,10.0,South,15.0,25.3,N/A,,Clear,170,2012-12-19 22:53:00
5:53 PM,75.0,62.1,64,29.62,10.0,South,18.4,25.3,N/A,,Clear,180,2012-12-19 23:53:00
6:53 PM,73.9,62.1,66,29.63,10.0,South,19.6,25.3,N/A,,Clear,180,2012-12-20 00:53:00
7:53 PM,73.9,62.1,66,29.65,10.0,South,16.1,26.5,N/A,,Mostly Cloudy,190,2012-12-20 01:53:00
8:53 PM,73.9,63.0,68,29.65,10.0,SSW,19.6,28.8,N/A,,Overcast,200,2012-12-20 02:53:00
9:26 PM,75.2,62.6,65,29.65,10.0,South,21.9,27.6,N/A,,Overcast,190,2012-12-20 03:26:00
9:53 PM,73.0,63.0,71,29.63,10.0,SSW,24.2,31.1,N/A,,Overcast,200,2012-12-20 03:53:00
10:53 PM,73.0,64.0,73,29.64,10.0,SSW,24.2,32.2,N/A,,Overcast,210,2012-12-20 04:53:00
11:15 PM,66.2,53.6,64,29.73,9.0,WNW,29.9,49.5,N/A,Thunderstorm,Overcast,300,2012-12-20 05:15:00
11:26 PM,60.8,53.6,77,29.76,6.0,West,21.9,41.4,0.03,Rain-Thunderstorm,Thunderstorms and Rain,280,2012-12-20 05:26:00